METEOR 2-7 DEB, 43302

Orbit data source: Space-Track

METEOR 2-7 DEB, 43302 is space debris in LEO originally from a launch on Thu, 14 May 1981 UTC launched from the Plesetsk Missile And Space Complex (PKMTR). Debris objects in space refer to the collection of defunct objects orbiting the Earth. Examples of debris include non-operational satellites, rocket bodies, and fragments generated from explosions, collisions, or faulty payload assembly.

Loading next visibility...
Identifier
43302, 1981-043Z
Orbit
LEO
Country
Flag of CISCIS
Related business
Manufacturer
Unknown
Mission
Spacecraft
Bus & Motor
Unknown
Mass
Unknown
Launch date (UTC)
1981-05-14 (44 years ago)
Launch vehicle
Unknown
Launch site
Plesetsk Missile And Space Complex (PKMTR)
Object type
Payload
Rocket body
Debris
Shape & HBR
Unknown
Radar Cross Section
Small (<0.1 m²)

Expand to show TLE details & history
Last TLE update: 3 days ago

TLE from 3 days ago
0 METEOR 2-7 DEB
1 43302U 81043Z   25257.91967425  .00003110  00000-0  11179-2 0  9998
2 43302  81.2587 334.8404 0043586 114.2347 246.3400 14.33085305492106
Epoch: 2025-09-14T22:04Z
TLE epoch observation values (Epoch: 2025-09-14T22:04:19.855Z)
Latitude
-0.00005°
Longitude
9.62589°
Altitude
797.007 km
Speed
7.448 km/s
True Right ascension
22h 19m 21s
True Declination
0° 00' 00"
Sunlit
Object was in full shadow at epoch
Visualization orbit readout
Latitude
Unknown
Longitude
Unknown
Altitude
Unknown
Speed
Unknown
Apparent Right ascension
Unknown
Apparent Declination
Unknown
Sunlit
N/A
Visualization observer readout
Local Sidereal Time
15:27:11
Azimuth
Unknown
Elevation
Unknown
Doppler factor
Unknown
Orbital elements
Apogee altitude
809.772 km
Perigee altitude
747.386 km
Semi-major axis
7,156.716 km
Eccentricity
0.00436
Inclination
81.2587°
RAAN
334.8404°
Arg. of periapsis
114.2347°
True anomaly
245.88353°
Mean anomaly
246.34°
Eccentric anomaly
246.11166°
Mean motion
3.58486 °/min
Orbital period
100.42 mins
BSTAR
0.0011179
Loading maneuver chart data...
Computing Atmospheric mass density...
Loading historical data...
Loading historical data...
Loading historical data...
Loading historical data...
Loading historical data...
Loading historical data...
Loading historical data...

Documentation

Showing up to 5 results
|